CZ-6A R/B, 54236

Orbit data source: Space-Track

CZ-6A R/B, 54236 is space debris in SSO originally from a launch on Fri, 11 Nov 2022 UTC launched from the Taiyaun Space Center, China (TSC). Debris objects in space refer to the collection of defunct objects orbiting the Earth. Examples of debris include non-operational satellites, rocket bodies, and fragments generated from explosions, collisions, or faulty payload assembly.

Loading next visibility...
Identifier
54236, 2022-151B
Orbit
SSO
Country
Flag of CNCN / PRC
Related business
Manufacturer
SAST
Mission
Spacecraft
Bus & Motor
CZ-6A STAGE 2, YF-115
Mass
~6,000 kg wet, ~6,000 kg dry
Launch date (UTC)
2022-11-11 (4 years ago)
Launch vehicle
Unknown
Launch site
Taiyaun Space Center, China (TSC)
Object type
Payload
Rocket body
Debris
Shape & HBR
CYL, 3.6 m
Radar Cross Section
Large (>1 m²)

Expand to show TLE details & history
Last TLE update: 7 hours ago

TLE from 7 hours ago
0 CZ-6A R/B
1 54236U 22151B   26263.97041072 -.00000072  00000-0 -16165-4 0  9994
2 54236  98.8578 263.3870 0046349  73.6630 286.9630 14.09314304198132
Epoch: 2026-09-20T23:17Z
TLE epoch observation values (Epoch: 2026-09-20T23:17:23.486Z)
Latitude
0.00002°
Longitude
-85.81781°
Altitude
854.965 km
Speed
7.43 km/s
True Right ascension
17h 33m 32s
True Declination
0° 00' 00"
Sunlit
Object was in daylight at epoch
Visualization orbit readout
Latitude
Unknown
Longitude
Unknown
Altitude
Unknown
Speed
Unknown
Apparent Right ascension
Unknown
Apparent Declination
Unknown
Sunlit
N/A
Visualization observer readout
Local Sidereal Time
23:09:48
Azimuth
Unknown
Elevation
Unknown
Doppler factor
Unknown
Orbital elements
Apogee altitude
892.442 km
Perigee altitude
825.356 km
Semi-major axis
7,237.036 km
Eccentricity
0.00463
Inclination
98.8578°
RAAN
263.387°
Arg. of periapsis
73.663°
True anomaly
286.45413°
Mean anomaly
286.963°
Eccentric anomaly
286.70865°
Mean motion
3.52535 °/min
Orbital period
102.12 mins
BSTAR
-0.000016165
Loading maneuver chart data...
Computing Atmospheric mass density...

Documentation

Showing up to 5 results
|